Location: Trois-Rivi�res
(46.3500°N, 72.5500°W)
Time: 09:02:46
(UTC-05:00)

OTV 5 (USA 277) - Pass Details

Date: 14 October 2017
Orbit: 404 x 417 km, 43.0° (Epoch: 07 September)

Event Time Altitude Azimuth Distance (km) Brightness Sun altitude
Rises 19:33:43 0° 255° (WSW) 2,353 ? -16.1°
Reaches altitude 10° 19:35:52 10° 249° (WSW) 1,490 ? -16.4°
Maximum altitude 19:39:07 45° 175° (S) 573 ? -17.0°
Enters shadow 19:39:45 40° 140° (SE) 633 ? -17.1°
